Location: Newark
(48.9233°N, 29.3439°E)
Time: 02:06:32
(UTC+00:00)

Envisat - Pass Details

Date: 01 October 2019
Orbit: 764 x 766 km, 98.1° (Epoch: 21 October)

Event Time Altitude Azimuth Distance (km) Brightness Sun altitude
Rises 17:36:02 0° 216° (SW) 3,223 6.5 -19.3°
Reaches altitude 10° 17:39:25 10° 240° (WSW) 2,303 6.0 -19.8°
Maximum altitude 17:42:10 15° 273° (W) 2,008 6.1 -20.2°
Drops below altitude 10° 17:44:55 10° 306° (NW) 2,312 6.6 -20.6°
Sets 17:48:21 0° 331° (NNW) 3,244 7.0 -21.2°
